Home   Weather   Jackson   Past weeks

Flag for USA Past Weather in Jackson, Wyoming, USA — Yesterday and Last 2 Weeks

Now
66 °F

Sunny.


Feels Like: 66 °F
Forecast: 44 / 64 °F
Wind: No wind

Location: Jackson Hole

Current Time: Sep 28, 2016 at 7:39:29 PM

Latest Report: Sep 28, 2016 at 6:50 PM


Visibility: 10 mi

Pressure: 30.26 "Hg (24.23 "Hg at 1901m altitude)

Humidity: 32%

Dew Point: 36 °F

Location of JacksonLocation

Past Weather in Jackson — Graph

°F

Jackson Temperature Yesterday

Maximum temperature yesterday: 73 °F (at 3:45 PM)
Minimum temperature yesterday: 34 °F (at 6:55 AM)
Average temperature yesterday: 46 °F

High & Low Weather Summary for the Past Weeks

 TemperatureHumidityPressure
High79 °F (Sep 20, 2:52 PM)100% (Sep 14, 4:35 AM)30.54 "Hg (Sep 14, 4:35 AM)
Low30 °F (Sep 17, 5:35 AM)16% (Sep 20, 2:52 PM)29.77 "Hg (Sep 23, 2:35 AM)
Average48 °F76%30.19 "Hg
* Reported Sep 13 4:51 PM — Sep 28 4:45 PM, Jackson, Weather by CustomWeather, © 2016

Note: Actual official high and low records may vary slightly from our data, if they occured in-between our weather recording intervals... More about our weather records

Advertising

Jackson Weather History for the Previous 24 Hours

Scroll right to see more
 ConditionsComfort  
Time TempWeatherWind HumidityBarometerVisibility
4:45 PM
Wed, Sep 28
75 °FSunny.5 mph21%30.27 "Hg10 mi
3:45 PM75 °FSunny.No wind21%30.28 "Hg10 mi
2:45 PM73 °FSunny.6 mph23%30.29 "Hg10 mi
1:51 PM72 °FSunny.No wind27%30.32 "Hg10 mi
12:45 PM64 °FSunny.6 mph37%30.34 "Hg10 mi
11:45 AM61 °FSunny.No wind45%30.36 "Hg10 mi
10:45 AM55 °FSunny.6 mph51%30.37 "Hg10 mi
9:45 AM48 °FSunny.No wind66%30.39 "Hg10 mi
8:51 AM34 °FSunny.No wind100%30.39 "Hg10 mi
6:47 AM36 °FClear.6 mph93%30.36 "Hg10 mi
6:35 AM36 °FClear.No wind93%30.36 "Hg10 mi
6:15 AM36 °FClear.No wind100%30.36 "Hg10 mi
5:55 AM37 °FClear.No wind93%30.35 "Hg10 mi
5:35 AM36 °FClear.No wind93%30.35 "Hg10 mi
5:15 AM41 °FClear.No wind81%30.35 "Hg10 mi
4:55 AM37 °FClear.No wind93%30.34 "Hg10 mi
4:35 AM37 °FClear.3 mph93%30.34 "Hg10 mi
4:15 AM36 °FClear.No wind93%30.34 "Hg10 mi
3:55 AM37 °FClear.5 mph93%30.34 "Hg10 mi
3:35 AM39 °FClear.3 mph87%30.33 "Hg10 mi
3:15 AM39 °FClear.5 mph87%30.33 "Hg10 mi
2:55 AM41 °FClear.6 mph81%30.33 "Hg10 mi
2:35 AM41 °FClear.No wind87%30.33 "Hg10 mi
2:15 AM43 °FClear.5 mph81%30.33 "Hg10 mi
1:55 AM43 °FClear.No wind81%30.33 "Hg10 mi
1:35 AM43 °FClear.5 mph81%30.32 "Hg10 mi
1:15 AM43 °FClear.3 mph81%30.32 "Hg10 mi
12:55 AM45 °FClear.7 mph76%30.31 "Hg10 mi
12:35 AM45 °FClear.3 mph76%30.31 "Hg10 mi
12:15 AM45 °FClear.7 mph81%30.31 "Hg10 mi
11:55 PM
Tue, Sep 27
45 °FClear.8 mph81%30.30 "Hg10 mi
11:35 PM45 °FClear.10 mph81%30.30 "Hg10 mi
11:15 PM46 °FClear.10 mph71%30.30 "Hg10 mi
10:55 PM46 °FClear.7 mph76%30.29 "Hg10 mi
10:35 PM46 °FClear.6 mph76%30.29 "Hg10 mi
10:15 PM52 °FClear.3 mph62%30.28 "Hg10 mi
9:55 PM52 °FClear.6 mph62%30.28 "Hg10 mi
9:35 PM46 °FClear.3 mph76%30.28 "Hg10 mi
9:15 PM50 °FClear.5 mph67%30.27 "Hg10 mi
8:55 PM52 °FClear.3 mph62%30.26 "Hg10 mi
7:50 PM55 °FClear.9 mph55%30.24 "Hg10 mi
Weather by CustomWeather, © 2016

See weather overviewHow to use our weather pages